Terminal Aerodrome Forecast
Issued by NWS Cleveland, OH

Home | Current Version | Previous Version | Graphics & Text | Print | Product List | Glossary On
Versions: 1 2 3 4 5 6 7 8 9 10 11 12 13 14 15 16 17 18 19
000
FTUS41 KCLE 170700 AAB
TAFYNG
TAF AMD
KYNG 170731Z 1708/1806 22009KT 3SM -SHRA BR OVC010
     FM171000 VRB03KT 2SM BR VCSH OVC007
     FM171200 28004KT 6SM HZ VCSH SCT007 OVC012
     FM171500 32006KT P6SM SCT012 BKN035
     FM172100 33007KT P6SM BKN050=

USA.gov is the U.S. government's official web portal to all federal, state and local government web resources and services.